This is the latest recevied weather packets stored in our database for station/object YO8SHU-10. If no packets are shown the sender has not sent any weather packets the latest 10 day(s).
| Time | Temp. | Humidity | Pressure | Rain* | Wind** | Luminosity | Snow |
|---|---|---|---|---|---|---|---|
| 1788148833 | 18.89° C | 100% | 1023.6 hPa | - | - | - | - |
| 1788147030 | 16.67° C | 100% | 1023.6 hPa | - | - | - | - |
| 1788145230 | 16.67° C | 100% | 1023.5 hPa | - | - | - | - |
| 1788143430 | 17.22° C | 100% | 1023.4 hPa | - | - | - | - |
| 1788141630 | 17.78° C | 100% | 1023.4 hPa | - | - | - | - |
| 1788139829 | 18.33° C | 100% | 1023.5 hPa | - | - | - | - |
| 1788138029 | 18.89° C | 100% | 1023.5 hPa | - | - | - | - |
| 1788136229 | 19.44° C | 100% | 1023.5 hPa | - | - | - | - |
| 1788134429 | 19.44° C | 100% | 1023.7 hPa | - | - | - | - |
| 1788132629 | 20° C | 100% | 1023.6 hPa | - | - | - | - |
| 1788130829 | 20° C | 100% | 1023.6 hPa | - | - | - | - |
| 1788129028 | 20.56° C | 100% | 1023.7 hPa | - | - | - | - |
| 1788127228 | 20.56° C | 100% | 1023.5 hPa | - | - | - | - |
| 1788125427 | 21.11° C | 100% | 1023.5 hPa | - | - | - | - |
| 1788123627 | 21.11° C | 100% | 1023.6 hPa | - | - | - | - |
| 1788121827 | 21.11° C | 100% | 1023.4 hPa | - | - | - | - |
| 1788120027 | 21.67° C | 100% | 1023.2 hPa | - | - | - | - |
| 1788118226 | 21.67° C | 100% | 1023.1 hPa | - | - | - | - |
| 1788116426 | 22.78° C | 100% | 1022.9 hPa | - | - | - | - |
| 1788114630 | 23.33° C | 100% | 1022.9 hPa | - | - | - | - |
| 1788112826 | 23.33° C | 100% | 1022.9 hPa | - | - | - | - |
| 1788111026 | 23.89° C | 100% | 1022.7 hPa | - | - | - | - |
| 1788109226 | 25° C | 96% | 1022.4 hPa | - | - | - | - |
| 1788107426 | 25.56° C | 90% | 1022.4 hPa | - | - | - | - |
| 1788105626 | 26.67° C | 83% | 1022 hPa | - | - | - | - |
* Rain since midnight (hover to see other rain measurements)
** Current wind speed in m/s (hover to see current wind gust speed)